period_start,C,m1,H,J0,J1,J2,J3,J4,J5,JA,JB,JC,JD,JJ,JK,JN,#
2015-03-03 00:04:28,0.22,1.80,0.00,21.99,27.60,29.64,4.83,27.38,1024.59,2028.99,2742.79,2804.14,3042.10,350.22,351.83,8.06,0000 0000 0000 0000 000000
2015-03-03 00:09:29,0.21,1.81,0.00,21.99,27.60,29.58,4.82,27.39,1024.50,2028.99,2740.56,2802.50,3040.32,350.04,351.68,8.09,0000 0000 0000 0000 000000
2015-03-03 00:14:31,0.21,1.81,0.00,22.01,27.60,29.64,4.92,27.18,1024.49,2028.99,2738.45,2800.92,3038.65,350.61,352.24,8.12,0000 0000 0000 0000 000000
2015-03-03 00:19:32,0.21,1.82,0.00,22.00,27.60,29.60,4.88,27.36,1024.47,2028.99,2736.28,2799.40,3036.93,349.79,351.34,8.15,0000 0000 0000 0000 000000
2015-03-03 00:24:33,0.24,1.83,0.00,22.09,27.60,29.62,4.90,27.53,1024.44,2028.99,2734.12,2797.72,3035.14,350.14,351.58,8.18,0000 0000 0000 0000 000000
2015-03-03 00:29:34,0.22,1.83,0.00,22.07,27.60,29.65,4.85,27.37,1024.48,2028.99,2731.84,2796.03,3033.36,349.98,351.37,8.21,0000 0000 0000 0000 000000
2015-03-03 00:34:36,0.21,1.84,0.00,22.05,27.60,29.63,4.79,27.24,1024.45,2028.99,2729.61,2794.44,3031.62,349.77,351.36,8.24,0000 0000 0000 0000 000000
2015-03-03 00:39:37,0.24,1.85,0.00,22.04,27.60,29.59,4.81,27.47,1024.43,2028.99,2727.39,2792.77,3029.80,350.24,351.57,8.27,0000 0000 0000 0000 000000
2015-03-03 00:44:38,0.20,1.85,0.00,22.04,27.60,29.58,4.82,27.24,1024.44,2028.99,2725.16,2791.17,3028.04,349.84,351.35,8.30,0000 0000 0000 0000 000000
2015-03-03 00:49:39,0.22,1.86,0.00,22.02,27.60,29.61,4.80,27.35,1024.45,2028.99,2723.06,2789.59,3026.37,349.78,351.24,8.33,0000 0000 0000 0000 000000
2015-03-03 00:54:41,0.21,1.87,0.00,22.02,27.61,29.61,4.80,27.32,1024.44,2028.99,2720.91,2788.00,3024.66,349.84,351.38,8.36,0000 0000 0000 0000 000000
2015-03-03 00:59:42,0.22,1.87,0.00,22.03,27.62,29.61,4.82,27.29,1024.44,2028.99,2718.75,2786.47,3022.91,349.69,351.32,8.39,0000 0000 0000 0000 000000
2015-03-03 01:04:43,0.21,1.88,0.00,22.05,27.62,29.65,4.92,27.32,1024.46,2028.99,2716.64,2784.83,3021.19,349.92,351.42,8.41,0000 0000 0000 0000 000000
2015-03-03 01:09:44,0.20,1.88,0.00,22.07,27.62,29.70,4.91,27.45,1024.47,2028.99,2714.51,2783.35,3019.54,350.40,351.77,8.44,0000 0000 0000 0000 000000
2015-03-03 01:14:45,0.22,1.89,0.00,22.08,27.62,29.68,4.90,27.32,1024.44,2028.99,2712.39,2781.71,3017.82,350.28,351.76,8.47,0000 0000 0000 0000 000000
2015-03-03 01:19:47,0.22,1.90,0.00,22.06,27.62,29.72,4.77,27.18,1024.44,2028.99,2710.19,2780.05,3016.08,350.31,351.64,8.50,0000 0000 0000 0000 000000
2015-03-03 01:24:48,0.22,1.90,0.00,22.09,27.63,29.68,4.83,27.17,1024.43,2028.99,2708.05,2778.50,3014.37,350.10,351.53,8.53,0000 0000 0000 0000 000000
2015-03-03 01:29:49,0.21,1.91,0.00,22.02,27.65,29.67,4.92,27.41,1024.44,2028.99,2705.98,2776.93,3012.70,350.20,351.86,8.56,0000 0000 0000 0000 000000
2015-03-03 01:34:50,0.20,1.92,0.00,22.07,27.65,29.71,4.83,27.06,1024.44,2028.98,2703.91,2775.42,3011.01,349.64,351.17,8.59,0000 0000 0000 0000 000000
2015-03-03 01:39:52,0.22,1.92,0.00,22.55,27.65,30.01,4.88,27.25,1024.44,2028.94,2701.69,2773.70,3009.25,350.65,351.77,8.62,0000 0000 0000 0000 000000
2015-03-03 01:44:53,0.20,1.93,0.00,22.90,27.66,30.42,4.86,27.14,1024.44,2028.96,2699.73,2772.25,3007.70,350.28,350.66,8.65,0000 0000 0000 0000 000000
2015-03-03 01:49:55,0.20,1.93,0.00,22.89,27.67,30.57,4.78,27.20,1024.44,2028.98,2697.75,2770.76,3006.22,349.71,350.39,8.68,0000 0000 0000 0000 000000
2015-03-03 01:54:56,0.18,1.94,0.00,22.79,27.67,30.56,4.85,27.24,1024.43,2028.99,2695.89,2769.47,3004.71,349.73,350.62,8.71,0000 0000 0000 0000 000000
2015-03-03 01:59:57,0.19,1.95,0.00,22.38,27.67,30.48,4.81,27.23,1024.43,2028.99,2693.91,2767.97,3003.22,350.14,351.12,8.74,0000 0000 0000 0000 000000
2015-03-03 02:04:59,0.21,1.95,0.00,22.20,27.67,30.42,4.91,27.34,1024.43,2028.99,2691.89,2766.58,3001.61,350.09,351.40,8.77,0000 0000 0000 0000 000000
2015-03-03 02:10:00,0.19,1.96,0.00,22.18,27.65,30.33,4.84,27.34,1024.43,2028.98,2689.87,2765.04,2999.92,349.79,351.11,8.80,0000 0000 0000 0000 000000
2015-03-03 02:15:01,0.21,1.96,0.00,22.14,27.65,30.11,4.89,27.26,1024.43,2028.98,2687.91,2763.57,2998.34,350.15,351.60,8.82,0000 0000 0000 0000 000000
2015-03-03 02:20:03,0.19,1.97,0.00,22.10,27.65,30.01,4.88,27.28,1024.43,2028.98,2686.01,2762.11,2996.73,350.19,351.60,8.85,0000 0000 0000 0000 000000
2015-03-03 02:25:04,0.21,1.98,0.00,22.11,27.65,29.89,4.89,27.26,1024.43,2028.97,2683.99,2760.63,2995.12,350.11,351.40,8.88,0000 0000 0000 0000 000000
2015-03-03 02:30:05,0.19,1.98,0.00,22.10,27.65,29.90,4.83,27.42,1024.43,2028.97,2682.00,2759.18,2993.58,350.29,351.95,8.91,0000 0000 0000 0000 000000
2015-03-03 02:35:06,0.20,1.99,0.00,22.16,27.65,29.91,4.93,27.38,1024.43,2028.97,2680.03,2757.72,2992.04,350.61,351.46,8.94,0000 0000 0000 0000 000000
2015-03-03 02:40:08,0.21,1.99,0.00,22.58,27.65,30.10,4.89,27.57,1024.43,2028.96,2678.01,2756.21,2990.42,350.19,351.18,8.97,0000 0000 0000 0000 000000
2015-03-03 02:45:09,0.21,2.00,0.00,23.04,27.66,30.52,4.79,27.34,1024.43,2028.92,2675.98,2754.62,2988.69,349.82,350.18,9.00,0000 0000 0000 0000 000000
2015-03-03 02:50:10,0.18,2.01,0.00,22.97,27.67,30.52,4.83,27.22,1024.43,2028.95,2674.07,2753.33,2987.25,349.71,350.02,9.03,0000 0000 0000 0000 000000
2015-03-03 02:55:11,0.19,2.01,0.00,23.05,27.66,30.58,4.83,27.25,1024.43,2028.98,2672.25,2751.97,2985.79,350.04,350.31,9.06,0000 0000 0000 0000 000000
2015-03-03 03:00:12,0.19,2.02,0.00,22.73,27.67,30.55,4.81,27.22,1024.43,2028.99,2670.39,2750.71,2984.37,349.62,350.27,9.09,0000 0000 0000 0000 000000
2015-03-03 03:05:13,0.19,2.02,0.00,22.48,27.66,30.46,4.86,27.45,1024.43,2028.97,2668.50,2749.40,2982.84,349.64,350.61,9.12,0000 0000 0000 0000 000000
2015-03-03 03:10:14,0.19,2.03,0.00,22.36,27.66,30.45,4.83,27.29,1024.43,2028.96,2666.58,2747.96,2981.28,350.14,351.13,9.15,0000 0000 0000 0000 000000
2015-03-03 03:15:15,0.21,2.04,0.00,22.88,27.66,30.55,4.85,27.36,1024.43,2028.96,2664.64,2746.57,2979.67,349.60,350.02,9.18,0000 0000 0000 0000 000000
2015-03-03 03:20:16,0.20,2.04,0.00,23.19,27.67,30.63,4.80,27.33,1024.43,2028.94,2662.66,2745.03,2978.06,349.60,349.89,9.21,0000 0000 0000 0000 000000
2015-03-03 03:25:18,0.20,2.05,0.00,23.19,27.66,30.65,4.82,27.31,1024.44,2028.96,2660.75,2743.68,2976.60,349.76,349.90,9.23,0000 0000 0000 0000 000000
2015-03-03 03:30:19,0.18,2.05,0.00,23.28,27.66,30.69,4.85,27.27,1024.43,2028.98,2658.90,2742.30,2975.11,349.72,349.63,9.26,0000 0000 0000 0000 000000
2015-03-03 03:35:21,0.19,2.06,0.00,23.36,27.66,30.68,4.79,27.33,1024.44,2028.97,2657.03,2740.86,2973.58,349.58,349.46,9.29,0000 0000 0000 0000 000000
2015-03-03 03:40:22,0.20,2.07,0.00,23.40,27.66,30.69,4.75,27.53,1024.45,2028.98,2655.06,2739.49,2972.06,349.21,349.06,9.32,0000 0000 0000 0000 000000
2015-03-03 03:45:24,0.18,2.07,0.00,23.45,27.66,30.66,4.82,27.32,1024.43,2028.99,2653.26,2738.08,2970.58,350.41,350.25,9.35,0000 0000 0000 0000 000000
2015-03-03 03:50:25,0.20,2.08,0.00,23.45,27.67,30.63,4.83,27.27,1024.43,2028.99,2651.34,2736.73,2969.06,350.33,350.26,9.38,0000 0000 0000 0000 000000
2015-03-03 03:55:26,0.19,2.08,0.00,23.34,27.67,30.63,4.76,27.28,1024.43,2028.97,2649.43,2735.39,2967.57,349.25,349.11,9.41,0000 0000 0000 0000 000000
2015-03-03 04:00:27,0.20,2.09,0.00,23.17,27.67,30.63,4.82,27.35,1024.44,2028.96,2647.48,2733.89,2965.99,349.57,349.82,9.44,0000 0000 0000 0000 000000
2015-03-03 04:05:29,0.21,2.09,0.00,23.31,27.67,30.65,4.85,27.40,1024.44,2028.98,2645.52,2732.50,2964.48,350.39,350.33,9.47,0000 0000 0000 0000 000000
2015-03-03 04:10:30,0.20,2.10,0.00,23.46,27.67,30.67,4.89,27.42,1024.45,2028.97,2643.55,2730.98,2962.86,349.94,349.73,9.50,0000 0000 0000 0000 000000
2015-03-03 04:15:32,0.20,2.11,0.00,23.51,27.67,30.68,4.80,27.34,1024.44,2028.97,2641.63,2729.59,2961.36,349.78,349.72,9.53,0000 0000 0000 0000 000000
2015-03-03 04:20:33,0.19,2.11,0.00,23.47,27.67,30.64,4.77,27.41,1024.44,2028.98,2639.73,2728.18,2959.81,349.73,349.54,9.56,0000 0000 0000 0000 000000
2015-03-03 04:25:35,0.20,2.12,0.00,23.46,27.67,30.64,4.84,27.37,1024.43,2028.97,2637.84,2726.78,2958.33,349.85,349.75,9.59,0000 0000 0000 0000 000000
2015-03-03 04:30:36,0.20,2.12,0.00,23.54,27.67,30.65,4.78,27.38,1024.43,2028.97,2635.90,2725.41,2956.74,349.77,349.62,9.62,0000 0000 0000 0000 000000
2015-03-03 04:35:37,0.19,2.13,0.00,23.60,27.67,30.66,4.77,27.18,1024.43,2028.97,2634.01,2723.96,2955.25,349.44,349.19,9.65,0000 0000 0000 0000 000000
2015-03-03 04:40:38,0.22,2.14,0.00,23.60,27.67,30.64,4.83,27.32,1024.43,2028.95,2631.98,2722.45,2953.53,350.10,349.75,9.67,0000 0000 0000 0000 000000
2015-03-03 04:45:39,0.17,2.14,0.00,23.60,27.67,30.63,4.76,27.19,1024.43,2028.94,2630.15,2721.02,2952.01,349.77,349.46,9.70,0000 0000 0000 0000 000000
2015-03-03 04:50:41,0.20,2.15,0.00,23.59,27.67,30.63,4.75,27.08,1024.43,2028.95,2628.31,2719.74,2950.62,349.42,349.16,9.73,0000 0000 0000 0000 000000
2015-03-03 04:55:42,0.20,2.15,0.00,23.55,27.67,30.63,4.78,27.20,1024.43,2028.98,2626.42,2718.36,2949.05,349.71,349.56,9.76,0000 0000 0000 0000 000000
2015-03-03 05:00:43,0.19,2.16,0.00,23.58,27.67,30.62,4.79,27.18,1024.41,2028.96,2624.57,2716.91,2947.59,350.15,349.82,9.79,0000 0000 0000 0000 000000
2015-03-03 05:05:44,0.19,2.17,0.00,23.64,27.67,30.62,4.82,27.37,1024.32,2028.94,2622.73,2715.57,2946.05,349.83,349.59,9.82,0000 0000 0000 0000 000000
2015-03-03 05:10:46,0.20,2.17,0.00,23.64,27.67,30.63,4.81,27.24,1024.24,2028.96,2620.86,2714.15,2944.62,349.51,349.04,9.85,0000 0000 0000 0000 000000
2015-03-03 05:15:47,0.21,2.18,0.00,23.61,27.67,30.63,4.83,27.16,1024.20,2028.98,2618.93,2712.70,2943.12,350.23,349.88,9.88,0000 0000 0000 0000 000000
2015-03-03 05:20:48,0.19,2.18,0.00,23.58,27.67,30.62,4.87,27.07,1023.99,2028.93,2616.99,2711.31,2941.55,350.25,349.77,9.91,0000 0000 0000 0000 000000
2015-03-03 05:25:49,0.20,2.19,0.00,23.63,27.67,30.63,4.77,27.06,1023.99,2028.94,2615.17,2709.86,2940.05,349.72,349.36,9.94,0000 0000 0000 0000 000000
2015-03-03 05:30:50,0.21,2.20,0.00,23.61,27.65,30.61,4.81,27.23,1024.00,2028.98,2613.30,2708.53,2938.54,350.26,349.75,9.97,0000 0000 0000 0000 000000
2015-03-03 05:35:52,0.17,2.20,0.00,23.63,27.65,30.61,4.79,27.07,1023.96,2028.95,2611.40,2707.12,2937.08,349.89,349.08,10.00,0000 0000 0000 0000 000000
2015-03-03 05:40:53,0.23,2.21,0.00,23.66,27.65,30.59,4.80,27.15,1023.96,2028.97,2609.45,2705.70,2935.55,350.10,349.52,10.03,0000 0000 0000 0000 000000
2015-03-03 05:45:54,0.18,2.21,0.00,23.62,27.65,30.59,4.90,27.19,1023.95,2028.94,2607.67,2704.39,2934.09,350.05,349.67,10.05,0000 0000 0000 0000 000000
2015-03-03 05:50:56,0.19,2.22,0.00,23.62,27.65,30.59,4.83,26.94,1023.96,2028.97,2605.90,2703.16,2932.66,350.05,349.54,10.08,0000 0000 0000 0000 000000
2015-03-03 05:55:57,0.19,2.22,0.00,23.69,27.65,30.57,4.78,26.96,1023.94,2028.97,2603.99,2701.79,2931.23,349.34,348.82,10.11,0000 0000 0000 0000 000000
2015-03-03 06:00:58,0.21,2.23,0.00,23.50,27.65,30.58,4.76,27.25,1023.94,2028.97,2602.06,2700.44,2929.74,350.26,349.76,10.14,0000 0000 0000 0000 000000
2015-03-03 06:05:59,0.17,2.24,0.00,23.48,27.65,30.59,4.78,27.05,1023.95,2028.98,2600.35,2699.11,2928.44,349.93,349.42,10.17,0000 0000 0000 0000 000000
2015-03-03 06:11:01,0.20,2.24,0.00,23.65,27.64,30.60,4.81,27.08,1023.97,2028.98,2598.56,2697.75,2926.92,350.70,350.12,10.20,0000 0000 0000 0000 000000
2015-03-03 06:16:02,0.19,2.25,0.00,23.71,27.64,30.62,4.85,27.27,1023.99,2028.98,2596.75,2696.46,2925.48,350.00,349.46,10.23,0000 0000 0000 0000 000000
2015-03-03 06:21:04,0.18,2.25,0.00,23.74,27.64,30.60,4.87,27.18,1024.17,2028.99,2594.98,2695.16,2924.03,350.20,349.63,10.26,0000 0000 0000 0000 000000
2015-03-03 06:26:05,0.20,2.26,0.00,23.78,27.62,30.58,4.79,27.23,1024.20,2028.98,2593.20,2693.84,2922.60,350.04,349.41,10.29,0000 0000 0000 0000 000000
2015-03-03 06:31:06,0.19,2.27,0.00,23.81,27.62,30.57,4.80,27.16,1024.29,2028.98,2591.31,2692.53,2921.15,350.20,349.48,10.32,0000 0000 0000 0000 000000
2015-03-03 06:36:07,0.19,2.27,0.00,23.85,27.62,30.54,4.77,27.03,1024.38,2028.99,2589.51,2691.22,2919.77,349.70,349.02,10.35,0000 0000 0000 0000 000000
2015-03-03 06:41:08,0.21,2.28,0.00,23.86,27.60,30.56,4.78,27.00,1024.32,2028.99,2587.60,2689.78,2918.34,350.78,350.11,10.38,0000 0000 0000 0000 000000
2015-03-03 06:46:10,0.17,2.28,0.00,23.82,27.60,30.58,4.82,27.13,1024.29,2028.99,2585.92,2688.67,2916.93,350.41,349.80,10.41,0000 0000 0000 0000 000000
2015-03-03 06:51:11,0.18,2.29,0.00,23.81,27.58,30.54,4.84,27.24,1024.40,2028.99,2584.24,2687.48,2915.61,350.01,349.40,10.44,0000 0000 0000 0000 000000
2015-03-03 06:56:13,0.18,2.29,0.00,23.77,27.57,30.54,4.86,27.21,1024.38,2028.99,2582.39,2686.20,2914.16,350.52,349.96,10.47,0000 0000 0000 0000 000000
2015-03-03 07:01:14,0.20,2.30,0.00,23.76,27.56,30.53,4.83,27.31,1024.32,2028.99,2580.66,2684.87,2912.76,349.91,349.33,10.49,0000 0000 0000 0000 000000
2015-03-03 07:06:15,0.19,2.30,0.00,23.71,27.55,30.49,4.86,27.26,1024.19,2028.99,2578.87,2683.66,2911.45,350.11,349.72,10.52,0000 0000 0000 0000 000000
2015-03-03 07:11:16,0.19,2.31,0.00,23.71,27.53,30.47,4.83,27.18,1024.13,2028.99,2577.09,2682.34,2909.91,350.10,349.25,10.55,0000 0000 0000 0000 000000
2015-03-03 07:16:18,0.18,2.32,0.00,23.69,27.52,30.43,4.86,27.20,1024.11,2029.00,2575.36,2681.07,2908.55,350.25,349.68,10.58,0000 0000 0000 0000 000000
2015-03-03 07:21:19,0.20,2.32,0.00,23.67,27.51,30.41,4.79,27.29,1024.06,2029.02,2573.58,2679.75,2907.20,349.33,348.79,10.61,0000 0000 0000 0000 000000
2015-03-03 07:26:20,0.19,2.33,0.00,23.64,27.50,30.41,4.80,27.11,1024.22,2029.02,2571.81,2678.54,2905.77,349.77,349.18,10.64,0000 0000 0000 0000 000000
2015-03-03 07:31:22,0.18,2.33,0.00,23.60,27.50,30.42,4.82,27.35,1024.20,2029.02,2570.03,2677.24,2904.41,350.55,350.20,10.67,0000 0000 0000 0000 000000
2015-03-03 07:36:23,0.19,2.34,0.00,23.66,27.48,30.40,4.77,27.27,1024.17,2029.02,2568.27,2675.93,2902.95,349.99,349.48,10.70,0000 0000 0000 0000 000000
2015-03-03 07:41:25,0.21,2.34,0.00,23.66,27.47,30.40,4.81,27.57,1024.14,2029.05,2566.44,2674.57,2901.53,349.91,349.32,10.73,0000 0000 0000 0000 000000
2015-03-03 07:46:26,0.17,2.35,0.00,23.64,27.47,30.43,4.86,27.64,1024.14,2029.07,2564.75,2673.40,2900.27,350.05,349.52,10.76,0000 0000 0000 0000 000000
2015-03-03 07:51:27,0.19,2.36,0.00,23.63,27.47,30.42,4.80,27.44,1024.19,2029.13,2563.06,2672.23,2898.87,349.63,349.41,10.79,0000 0000 0000 0000 000000
2015-03-03 07:56:28,0.18,2.36,0.00,23.66,27.47,30.43,4.79,27.46,1024.20,2029.10,2561.26,2670.88,2897.51,349.91,349.41,10.82,0000 0000 0000 0000 000000
2015-03-03 08:01:30,0.19,2.37,0.00,23.64,27.46,30.40,4.83,27.61,1024.28,2029.08,2559.50,2669.53,2896.04,350.13,349.68,10.85,0000 0000 0000 0000 000000
2015-03-03 08:06:31,0.18,2.37,0.00,23.63,27.45,30.42,4.79,27.46,1024.22,2029.13,2558.01,2668.32,2894.71,349.80,349.37,10.88,0000 0000 0000 0000 000000
2015-03-03 08:11:32,0.18,2.38,0.00,23.61,27.45,30.41,4.82,27.47,1024.22,2029.15,2556.29,2667.06,2893.33,349.58,349.17,10.90,0000 0000 0000 0000 000000
2015-03-03 08:16:33,0.24,2.38,0.00,23.61,27.45,30.43,4.78,27.25,1024.25,2029.37,2554.63,2665.81,2891.99,350.06,349.63,10.93,0000 0000 0000 0000 000000
2015-03-03 08:21:34,0.18,2.39,0.00,23.59,27.45,30.41,4.87,27.32,1024.38,2029.28,2552.83,2664.58,2890.62,349.94,349.42,10.96,0000 0000 0000 0000 000000
2015-03-03 08:26:35,0.16,2.40,0.00,23.59,27.45,30.41,4.76,27.66,1024.43,2029.29,2551.14,2663.39,2889.32,349.60,349.25,10.99,0000 0000 0000 0000 000000
2015-03-03 08:31:37,0.20,2.40,0.00,23.59,27.45,30.42,4.81,27.52,1024.43,2029.33,2549.39,2662.04,2887.89,349.98,349.66,11.02,0000 0000 0000 0000 000000
2015-03-03 08:36:38,0.22,2.41,0.00,23.64,27.45,30.37,4.78,27.63,1024.43,2029.40,2547.69,2660.78,2886.56,349.84,349.44,11.05,0000 0000 0000 0000 000000
2015-03-03 08:41:39,0.16,2.41,0.00,23.59,27.45,30.39,4.84,27.58,1024.43,2029.30,2545.79,2659.41,2885.03,350.64,349.98,11.08,0000 0000 0000 0000 000000
2015-03-03 08:46:40,0.18,2.42,0.00,23.57,27.45,30.42,4.78,27.50,1024.43,2029.27,2544.20,2658.20,2883.64,349.49,349.29,11.11,0000 0000 0000 0000 000000
2015-03-03 08:51:42,0.17,2.42,0.00,23.56,27.45,30.44,4.83,27.33,1024.43,2029.17,2542.43,2656.89,2882.26,349.67,349.29,11.14,0000 0000 0000 0000 000000
2015-03-03 08:56:43,0.19,2.43,0.00,23.61,27.45,30.43,4.82,27.54,1024.43,2029.15,2540.65,2655.64,2880.86,350.06,349.75,11.17,0000 0000 0000 0000 000000
2015-03-03 09:01:44,0.20,2.43,0.00,23.57,27.45,30.45,4.76,27.43,1024.43,2029.21,2538.90,2654.34,2879.56,349.94,349.52,11.20,0000 0000 0000 0000 000000
2015-03-03 09:06:46,0.17,2.44,0.00,23.55,27.45,30.43,4.84,27.42,1024.43,2029.08,2537.03,2652.94,2878.26,349.75,349.44,11.23,0000 0000 0000 0000 000000
2015-03-03 09:11:47,0.20,2.45,0.00,23.62,27.45,30.43,4.81,27.36,1024.43,2029.11,2535.36,2651.68,2876.83,350.01,349.59,11.26,0000 0000 0000 0000 000000
2015-03-03 09:16:49,0.20,2.45,0.00,23.61,27.45,30.43,4.77,27.69,1024.43,2029.11,2533.50,2650.34,2875.41,349.85,349.49,11.29,0000 0000 0000 0000 000000
2015-03-03 09:21:50,0.20,2.46,0.00,23.60,27.45,30.44,4.76,27.58,1024.43,2029.19,2531.74,2649.05,2873.99,349.76,349.22,11.31,0000 0000 0000 0000 000000
2015-03-03 09:26:52,0.23,2.46,0.00,23.65,27.45,30.44,4.74,27.46,1024.43,2029.38,2529.99,2647.81,2872.66,350.07,349.47,11.34,0000 0000 0000 0000 000000
2015-03-03 09:31:53,0.15,2.47,0.00,23.62,27.45,30.42,4.73,27.43,1024.43,2029.19,2528.29,2646.45,2871.28,349.56,349.19,11.37,0000 0000 0000 0000 000000
2015-03-03 09:36:54,0.22,2.48,0.00,23.59,27.45,30.45,4.86,27.63,1024.43,2029.31,2526.54,2645.29,2869.81,350.22,349.97,11.40,0000 0000 0000 0000 000000
2015-03-03 09:41:55,0.19,2.48,0.00,23.61,27.45,30.45,4.86,27.74,1024.43,2029.22,2524.67,2643.85,2868.38,350.27,349.88,11.43,0000 0000 0000 0000 000000
2015-03-03 09:46:57,0.20,2.49,0.00,23.59,27.45,30.46,4.80,27.43,1024.43,2029.29,2523.00,2642.59,2867.04,350.03,349.46,11.46,0000 0000 0000 0000 000000
2015-03-03 09:51:58,0.15,2.49,0.00,23.61,27.46,30.44,4.77,27.45,1024.43,2029.16,2521.24,2641.33,2865.59,349.79,349.26,11.49,0000 0000 0000 0000 000000
2015-03-03 09:57:00,0.18,2.50,0.00,23.55,27.46,30.44,4.76,27.46,1024.43,2029.12,2519.44,2640.02,2864.27,349.48,349.29,11.52,0000 0000 0000 0000 000000
2015-03-03 10:02:01,0.20,2.50,0.00,23.53,27.47,30.43,4.84,27.64,1024.43,2029.10,2517.71,2638.75,2862.84,349.54,349.43,11.55,0000 0000 0000 0000 000000
2015-03-03 10:07:02,0.20,2.51,0.00,23.53,27.47,30.42,4.77,27.51,1024.43,2029.12,2516.01,2637.54,2861.50,350.10,349.79,11.58,0000 0000 0000 0000 000000
2015-03-03 10:12:03,0.18,2.52,0.00,23.54,27.47,30.43,4.83,27.45,1024.43,2029.11,2514.36,2636.22,2860.04,350.11,349.85,11.61,0000 0000 0000 0000 000000
2015-03-03 10:17:05,0.20,2.52,0.00,23.58,27.47,30.43,4.83,27.46,1024.43,2029.07,2512.59,2634.88,2858.63,349.95,349.50,11.64,0000 0000 0000 0000 000000
2015-03-03 10:22:06,0.19,2.53,0.00,23.61,27.48,30.44,4.81,27.42,1024.43,2029.05,2510.88,2633.62,2857.25,349.66,348.98,11.67,0000 0000 0000 0000 000000
2015-03-03 10:27:07,0.18,2.53,0.00,23.54,27.49,30.46,4.80,27.40,1024.43,2029.06,2509.27,2632.44,2855.88,350.52,350.03,11.70,0000 0000 0000 0000 000000
2015-03-03 10:32:08,0.18,2.54,0.00,23.57,27.50,30.44,4.86,27.36,1024.42,2029.03,2507.53,2631.17,2854.55,350.28,349.79,11.72,0000 0000 0000 0000 000000
2015-03-03 10:37:10,0.19,2.54,0.00,23.57,27.50,30.47,4.83,27.36,1024.43,2029.07,2505.90,2629.96,2853.24,350.20,349.85,11.75,0000 0000 0000 0000 000000
2015-03-03 10:42:12,0.20,2.55,0.00,23.61,27.50,30.49,4.84,27.02,1024.43,2029.02,2504.14,2628.61,2851.70,350.34,350.08,11.78,0000 0000 0000 0000 000000
2015-03-03 10:47:13,0.17,2.55,0.00,23.60,27.50,30.48,4.78,27.33,1024.43,2029.02,2502.51,2627.44,2850.44,349.24,348.90,11.81,0000 0000 0000 0000 000000
2015-03-03 10:52:14,0.18,2.56,0.00,23.59,27.50,30.48,4.83,27.43,1024.43,2029.01,2500.85,2626.21,2849.10,350.12,349.89,11.84,0000 0000 0000 0000 000000
2015-03-03 10:57:15,0.17,2.57,0.00,23.54,27.50,30.49,4.78,27.27,1024.43,2029.00,2499.25,2624.97,2847.81,349.66,349.41,11.87,0000 0000 0000 0000 000000
2015-03-03 11:02:16,0.20,2.57,0.00,23.57,27.51,30.49,4.85,27.32,1024.43,2029.00,2497.59,2623.73,2846.46,350.04,349.71,11.90,0000 0000 0000 0000 000000
2015-03-03 11:07:18,0.16,2.58,0.00,23.55,27.52,30.49,4.83,27.56,1024.43,2029.00,2495.99,2622.72,2845.16,349.94,349.65,11.93,0000 0000 0000 0000 000000
2015-03-03 11:12:19,0.18,2.58,0.00,23.55,27.52,30.50,4.91,27.54,1024.43,2029.00,2494.51,2621.55,2843.85,350.79,350.49,11.96,0000 0000 0000 0000 000000
2015-03-03 11:17:20,0.16,2.59,0.00,23.55,27.52,30.51,4.87,27.39,1024.43,2029.01,2493.00,2620.48,2842.63,350.57,350.18,11.99,0000 0000 0000 0000 000000
2015-03-03 11:22:22,0.17,2.59,0.00,23.56,27.52,30.49,4.80,27.43,1024.43,2029.00,2491.47,2619.30,2841.36,349.92,349.58,12.02,0000 0000 0000 0000 000000
2015-03-03 11:27:23,0.18,2.60,0.00,23.62,27.52,30.48,4.81,27.53,1024.43,2029.00,2489.83,2618.12,2840.10,350.27,349.90,12.05,0000 0000 0000 0000 000000
2015-03-03 11:32:24,0.19,2.60,0.00,23.56,27.52,30.48,4.89,27.50,1024.43,2029.00,2488.27,2616.88,2838.71,350.43,349.98,12.08,0000 0000 0000 0000 000000
2015-03-03 11:37:26,0.18,2.61,0.00,23.51,27.52,30.50,4.84,27.42,1024.43,2029.00,2486.65,2615.76,2837.52,349.92,349.68,12.11,0000 0000 0000 0000 000000
2015-03-03 11:42:27,0.19,2.61,0.00,23.54,27.52,30.51,4.78,27.74,1024.43,2029.00,2484.92,2614.49,2836.16,349.82,349.56,12.14,0000 0000 0000 0000 000000
2015-03-03 11:47:29,0.16,2.62,0.00,23.56,27.52,30.51,4.84,27.59,1024.43,2029.00,2483.53,2613.42,2834.99,349.86,349.75,12.16,0000 0000 0000 0000 000000
2015-03-03 11:52:30,0.18,2.62,0.00,23.53,27.52,30.51,4.81,27.62,1024.40,2029.00,2481.94,2612.30,2833.70,350.24,350.07,12.19,0000 0000 0000 0000 000000
2015-03-03 11:57:31,0.16,2.63,0.00,23.55,27.52,30.51,4.87,27.68,1024.40,2029.00,2480.43,2611.08,2832.47,350.15,349.76,12.22,0000 0000 0000 0000 000000
2015-03-03 12:02:32,0.17,2.63,0.00,23.56,27.53,30.51,4.78,27.45,1024.42,2029.00,2478.88,2609.94,2831.17,350.35,349.98,12.25,0000 0000 0000 0000 000000
2015-03-03 12:07:33,0.19,2.64,0.00,23.57,27.54,30.51,4.86,27.43,1024.42,2029.00,2477.28,2608.77,2829.91,350.26,350.03,12.28,0000 0000 0000 0000 000000
2015-03-03 12:12:34,0.18,2.64,0.00,23.55,27.55,30.52,4.80,27.37,1024.39,2029.00,2475.82,2607.71,2828.65,349.47,349.03,12.31,0000 0000 0000 0000 000000
2015-03-03 12:17:35,0.17,2.65,0.00,23.57,27.55,30.52,4.76,27.22,1024.32,2029.00,2474.43,2606.55,2827.39,349.62,349.29,12.34,0000 0000 0000 0000 000000
2015-03-03 12:22:37,0.17,2.66,0.00,23.60,27.55,30.52,4.81,27.16,1024.16,2029.00,2472.76,2605.41,2826.17,350.42,349.66,12.37,0000 0000 0000 0000 000000
2015-03-03 12:27:38,0.17,2.66,0.00,23.60,27.55,30.51,4.76,27.38,1023.99,2028.98,2471.14,2604.22,2824.91,349.54,349.20,12.40,0000 0000 0000 0000 000000
2015-03-03 12:32:39,0.19,2.67,0.00,23.54,27.55,30.53,4.85,27.33,1023.98,2028.99,2469.58,2603.06,2823.64,350.42,349.77,12.43,0000 0000 0000 0000 000000
2015-03-03 12:37:40,0.16,2.67,0.00,23.48,27.55,30.55,4.83,27.27,1024.09,2028.98,2468.04,2601.91,2822.45,350.58,350.23,12.46,0000 0000 0000 0000 000000
2015-03-03 12:42:42,0.20,2.68,0.00,23.50,27.55,30.54,4.80,27.12,1024.06,2028.98,2466.42,2600.69,2821.11,349.61,349.26,12.49,0000 0000 0000 0000 000000
2015-03-03 12:47:43,0.17,2.68,0.00,23.58,27.56,30.52,4.75,27.25,1024.01,2028.98,2464.93,2599.65,2819.89,349.52,349.05,12.52,0000 0000 0000 0000 000000
2015-03-03 12:52:44,0.18,2.69,0.00,23.53,27.57,30.54,4.76,27.45,1023.99,2028.98,2463.39,2598.47,2818.65,349.90,349.52,12.54,0000 0000 0000 0000 000000
2015-03-03 12:57:46,0.18,2.69,0.00,23.56,27.57,30.55,4.85,27.41,1023.98,2028.97,2461.71,2597.25,2817.38,350.14,349.86,12.57,0000 0000 0000 0000 000000
2015-03-03 13:02:47,0.17,2.70,0.00,23.57,27.57,30.55,4.86,27.43,1023.96,2028.98,2460.13,2596.07,2816.12,350.35,349.87,12.60,0000 0000 0000 0000 000000